Location: Losili
(4.4086°N, 32.7049°E)
Time: 14:11:31
(UTC+00:00)

SL-24 R/B - Visible Passes

Search period start: 07 December 2019 00:00
Search period end: 17 December 2019 00:00
Orbit: 714 x 1119 km, 91.9° (Epoch: 06 December)

Date Brightness Start Highest point End Pass type
(mag) Time Alt. Az. Time Alt. Az. Time Alt. Az.
07 Dec 7.3 00:33:31 16° SSE 00:33:31 16° SSE 00:34:50 10° SSE visible
08 Dec 7.3 00:41:30 16° S 00:41:30 16° S 00:42:45 10° S visible
09 Dec 7.3 00:49:30 15° S 00:49:30 15° S 00:50:34 10° S visible
10 Dec 7.3 00:57:30 14° S 00:57:30 14° S 00:58:15 10° S visible
11 Dec 7.4 01:05:29 12° SSW 01:05:29 12° SSW 01:05:52 10° SSW visible
